owner,sensor,date,latitude,longitude,vertical_datum,sea_water_practical_salinity,qcFlag 
TABS,ioos:station:wmo:42050:1,2017-01-01T00:00:00Z,28.8425,-94.2433,2.0,35.6078,11111222 
TABS,ioos:station:wmo:42050:1,2017-01-01T00:30:00Z,28.8425,-94.2433,2.0,35.6136,11111222 
TABS,ioos:station:wmo:42050:1,2017-01-01T01:00:00Z,28.8425,-94.2433,2.0,35.6129,11111222 
TABS,ioos:station:wmo:42050:1,2017-01-01T01:30:00Z,28.8425,-94.2433,2.0,35.617,11111222 
TABS,ioos:station:wmo:42050:1,2017-01-01T02:00:00Z,28.8425,-94.2433,2.0,35.6169,11111222 
TABS,ioos:station:wmo:42050:1,2017-01-01T02:30:00Z,28.8425,-94.2433,2.0,35.612,11111222 
TABS,ioos:station:wmo:42050:1,2017-01-01T03:00:00Z,28.8425,-94.2433,2.0,35.6013,11111222 
TABS,ioos:station:wmo:42050:1,2017-01-01T03:30:00Z,28.8425,-94.2433,2.0,35.6064,11111222 
TABS,ioos:station:wmo:42050:1,2017-01-01T04:00:00Z,28.8425,-94.2433,2.0,35.6113,11111222 
TABS,ioos:station:wmo:42050:1,2017-01-01T04:30:00Z,28.8425,-94.2433,2.0,35.6118,11111222 
TABS,ioos:station:wmo:42050:1,2017-01-01T05:00:00Z,28.8425,-94.2433,2.0,35.6093,11111222 
TABS,ioos:station:wmo:42050:1,2017-01-01T05:30:00Z,28.8425,-94.2433,2.0,35.6082,11111222 
TABS,ioos:station:wmo:42050:1,2017-01-01T06:00:00Z,28.8425,-94.2433,2.0,0.0,11111222 
TABS,ioos:station:wmo:42050:1,2017-01-01T06:30:00Z,28.8425,-94.2433,2.0,35.6123,11111222 
TABS,ioos:station:wmo:42050:1,2017-01-01T07:00:00Z,28.8425,-94.2433,2.0,-0.0191,11144222 
TABS,ioos:station:wmo:42050:1,2017-01-01T07:30:00Z,28.8425,-94.2433,2.0,35.6135,11111222 
TABS,ioos:station:wmo:42050:1,2017-01-01T08:00:00Z,28.8425,-94.2433,2.0,-0.0191,11144222 
TABS,ioos:station:wmo:42050:1,2017-01-01T08:30:00Z,28.8425,-94.2433,2.0,-0.0191,11144222 
TABS,ioos:station:wmo:42050:1,2017-01-01T09:00:00Z,28.8425,-94.2433,2.0,-0.0191,11144222 
TABS,ioos:station:wmo:42050:1,2017-01-01T09:30:00Z,28.8425,-94.2433,2.0,-0.0191,11144222 
TABS,ioos:station:wmo:42050:1,2017-01-01T10:00:00Z,28.8425,-94.2433,2.0,-0.0191,11144222 
TABS,ioos:station:wmo:42050:1,2017-01-01T10:30:00Z,28.8425,-94.2433,2.0,-0.0191,11144222 
TABS,ioos:station:wmo:42050:1,2017-01-01T11:00:00Z,28.8425,-94.2433,2.0,-0.0191,11144222 
TABS,ioos:station:wmo:42050:1,2017-01-01T11:30:00Z,28.8425,-94.2433,2.0,0.2583,11111222 
TABS,ioos:station:wmo:42050:1,2017-01-01T12:00:00Z,28.8425,-94.2433,2.0,-0.0191,11144222 
TABS,ioos:station:wmo:42050:1,2017-01-01T12:30:00Z,28.8425,-94.2433,2.0,-0.0191,11144222 
TABS,ioos:station:wmo:42050:1,2017-01-01T13:00:00Z,28.8425,-94.2433,2.0,0.0468,11111222 
TABS,ioos:station:wmo:42050:1,2017-01-01T13:30:00Z,28.8425,-94.2433,2.0,0.3856,11111222 
TABS,ioos:station:wmo:42050:1,2017-01-01T14:30:00Z,28.8425,-94.2433,2.0,-0.0191,11144222 
TABS,ioos:station:wmo:42050:1,2017-01-01T15:00:00Z,28.8425,-94.2433,2.0,-0.0191,11144222 
TABS,ioos:station:wmo:42050:1,2017-01-01T15:30:00Z,28.8425,-94.2433,2.0,-0.0191,11144222 
TABS,ioos:station:wmo:42050:1,2017-01-01T16:30:00Z,28.8425,-94.2433,2.0,-0.0191,11144222 
TABS,ioos:station:wmo:42050:1,2017-01-01T17:00:00Z,28.8425,-94.2433,2.0,0.2196,11111222 
TABS,ioos:station:wmo:42050:1,2017-01-01T17:30:00Z,28.8425,-94.2433,2.0,-0.0191,11144222 
TABS,ioos:station:wmo:42050:1,2017-01-02T10:30:00Z,28.8425,-94.2433,2.0,-0.0191,11144222 
TABS,ioos:station:wmo:42050:1,2017-01-03T11:00:00Z,28.8425,-94.2433,2.0,-0.0191,11144222 
TABS,ioos:station:wmo:42050:1,2017-01-03T11:30:00Z,28.8425,-94.2433,2.0,-0.0191,11144222 
TABS,ioos:station:wmo:42050:1,2017-01-03T12:00:00Z,28.8425,-94.2433,2.0,0.3861,11111222 
TABS,ioos:station:wmo:42050:1,2017-01-03T12:30:00Z,28.8425,-94.2433,2.0,0.0468,11111222 
TABS,ioos:station:wmo:42050:1,2017-01-08T00:30:00Z,28.8425,-94.2433,2.0,0.3866,11111222 
TABS,ioos:station:wmo:42050:1,2017-01-08T01:00:00Z,28.8425,-94.2433,2.0,-0.0191,11144222 
TABS,ioos:station:wmo:42050:1,2017-01-08T01:30:00Z,28.8425,-94.2433,2.0,-0.0191,11144222 
TABS,ioos:station:wmo:42050:1,2017-01-08T02:00:00Z,28.8425,-94.2433,2.0,-0.0191,11144222 
TABS,ioos:station:wmo:42050:1,2017-01-08T02:30:00Z,28.8425,-94.2433,2.0,48.9661,11133222 
TABS,ioos:station:wmo:42050:1,2017-01-08T03:00:00Z,28.8425,-94.2433,2.0,-0.0191,11144222 
TABS,ioos:station:wmo:42050:1,2017-01-08T03:30:00Z,28.8425,-94.2433,2.0,0.0,11111222 
TABS,ioos:station:wmo:42050:1,2017-01-08T04:00:00Z,28.8425,-94.2433,2.0,-0.0191,11144222 
TABS,ioos:station:wmo:42050:1,2017-01-08T04:30:00Z,28.8425,-94.2433,2.0,-0.0191,11144222 
TABS,ioos:station:wmo:42050:1,2017-01-08T05:00:00Z,28.8425,-94.2433,2.0,-0.0191,11144222 
TABS,ioos:station:wmo:42050:1,2017-01-08T05:30:00Z,28.8425,-94.2433,2.0,-0.0191,11144222 
TABS,ioos:station:wmo:42050:1,2017-01-08T06:00:00Z,28.8425,-94.2433,2.0,-0.0191,11144222 
TABS,ioos:station:wmo:42050:1,2017-01-08T06:30:00Z,28.8425,-94.2433,2.0,-0.0191,11144222 
TABS,ioos:station:wmo:42050:1,2017-01-08T07:00:00Z,28.8425,-94.2433,2.0,0.0,11111222 
TABS,ioos:station:wmo:42050:1,2017-01-08T07:30:00Z,28.8425,-94.2433,2.0,-0.0191,11144222 
TABS,ioos:station:wmo:42050:1,2017-01-08T08:00:00Z,28.8425,-94.2433,2.0,-0.0191,11144222 
TABS,ioos:station:wmo:42050:1,2017-01-08T08:30:00Z,28.8425,-94.2433,2.0,-0.0191,11144222 
TABS,ioos:station:wmo:42050:1,2017-01-08T09:00:00Z,28.8425,-94.2433,2.0,-0.0191,11144222 
TABS,ioos:station:wmo:42050:1,2017-01-08T09:30:00Z,28.8425,-94.2433,2.0,-0.0191,11144222 
TABS,ioos:station:wmo:42050:1,2017-01-08T10:00:00Z,28.8425,-94.2433,2.0,-0.0191,11144222 
TABS,ioos:station:wmo:42050:1,2017-01-08T10:30:00Z,28.8425,-94.2433,2.0,-0.0191,11144222 
TABS,ioos:station:wmo:42050:1,2017-01-08T11:00:00Z,28.8425,-94.2433,2.0,48.9346,11133222 
TABS,ioos:station:wmo:42050:1,2017-01-08T11:30:00Z,28.8425,-94.2433,2.0,36.0054,11111222 
TABS,ioos:station:wmo:42050:1,2017-01-08T12:00:00Z,28.8425,-94.2433,2.0,36.0119,11111222 
TABS,ioos:station:wmo:42050:1,2017-01-08T12:30:00Z,28.8425,-94.2433,2.0,36.0067,11111222 
TABS,ioos:station:wmo:42050:1,2017-01-08T13:00:00Z,28.8425,-94.2433,2.0,-0.0191,11144222 
TABS,ioos:station:wmo:42050:1,2017-01-08T13:30:00Z,28.8425,-94.2433,2.0,36.0163,11111222 
TABS,ioos:station:wmo:42050:1,2017-01-08T14:00:00Z,28.8425,-94.2433,2.0,36.0112,11111222 
TABS,ioos:station:wmo:42050:1,2017-01-08T14:30:00Z,28.8425,-94.2433,2.0,48.9496,11133222 
TABS,ioos:station:wmo:42050:1,2017-01-08T15:00:00Z,28.8425,-94.2433,2.0,-0.0191,11144222 
TABS,ioos:station:wmo:42050:1,2017-01-08T15:30:00Z,28.8425,-94.2433,2.0,-0.0191,11144222 
TABS,ioos:station:wmo:42050:1,2017-01-08T16:00:00Z,28.8425,-94.2433,2.0,-0.0191,11144222 
TABS,ioos:station:wmo:42050:1,2017-01-08T16:30:00Z,28.8425,-94.2433,2.0,-0.0191,11144222 
TABS,ioos:station:wmo:42050:1,2017-01-08T17:00:00Z,28.8425,-94.2433,2.0,-0.0191,11144222 
TABS,ioos:station:wmo:42050:1,2017-01-08T17:30:00Z,28.8425,-94.2433,2.0,-0.0191,11144222 
TABS,ioos:station:wmo:42050:1,2017-01-08T18:00:00Z,28.8425,-94.2433,2.0,-0.0191,11144222 
TABS,ioos:station:wmo:42050:1,2017-01-08T18:30:00Z,28.8425,-94.2433,2.0,-0.0191,11144222 
TABS,ioos:station:wmo:42050:1,2017-01-08T19:00:00Z,28.8425,-94.2433,2.0,-0.0191,11144222 
TABS,ioos:station:wmo:42050:1,2017-01-08T19:30:00Z,28.8425,-94.2433,2.0,-0.0191,11144222 
TABS,ioos:station:wmo:42050:1,2017-01-08T20:00:00Z,28.8425,-94.2433,2.0,-0.0191,11144222 
TABS,ioos:station:wmo:42050:1,2017-01-08T20:30:00Z,28.8425,-94.2433,2.0,-0.0191,11144222 
TABS,ioos:station:wmo:42050:1,2017-01-08T21:30:00Z,28.8425,-94.2433,2.0,-0.0191,11144222 
TABS,ioos:station:wmo:42050:1,2017-01-08T22:30:00Z,28.8425,-94.2433,2.0,-0.0191,11144222 
TABS,ioos:station:wmo:42050:1,2017-01-09T03:30:00Z,28.8425,-94.2433,2.0,-0.0191,11144222 
TABS,ioos:station:wmo:42050:1,2017-01-09T05:00:00Z,28.8425,-94.2433,2.0,0.3591,11111222 
TABS,ioos:station:wmo:42050:1,2017-01-09T05:30:00Z,28.8425,-94.2433,2.0,-0.0191,11144222 
TABS,ioos:station:wmo:42050:1,2017-01-09T06:30:00Z,28.8425,-94.2433,2.0,-0.0191,11144222 
TABS,ioos:station:wmo:42050:1,2017-01-09T07:30:00Z,28.8425,-94.2433,2.0,-0.0191,11144222 
TABS,ioos:station:wmo:42050:1,2017-01-09T08:30:00Z,28.8425,-94.2433,2.0,0.0414,11111222 
TABS,ioos:station:wmo:42050:1,2017-01-09T09:00:00Z,28.8425,-94.2433,2.0,-0.0191,11144222 
TABS,ioos:station:wmo:42050:1,2017-01-09T10:30:00Z,28.8425,-94.2433,2.0,0.3867,11111222 
TABS,ioos:station:wmo:42050:1,2017-01-09T11:00:00Z,28.8425,-94.2433,2.0,-0.0191,11144222 
TABS,ioos:station:wmo:42050:1,2017-01-09T11:30:00Z,28.8425,-94.2433,2.0,-0.0191,11144222 
TABS,ioos:station:wmo:42050:1,2017-01-09T12:00:00Z,28.8425,-94.2433,2.0,-0.0191,11144222 
TABS,ioos:station:wmo:42050:1,2017-01-09T12:30:00Z,28.8425,-94.2433,2.0,-0.0191,11144222 
TABS,ioos:station:wmo:42050:1,2017-01-09T13:00:00Z,28.8425,-94.2433,2.0,0.0,11111222 
TABS,ioos:station:wmo:42050:1,2017-01-09T13:30:00Z,28.8425,-94.2433,2.0,49.319,11133222 
TABS,ioos:station:wmo:42050:1,2017-01-09T14:00:00Z,28.8425,-94.2433,2.0,0.0,11111222 
TABS,ioos:station:wmo:42050:1,2017-01-09T14:30:00Z,28.8425,-94.2433,2.0,-0.0191,11144222 
TABS,ioos:station:wmo:42050:1,2017-01-09T15:00:00Z,28.8425,-94.2433,2.0,-0.0191,11144222 
TABS,ioos:station:wmo:42050:1,2017-01-09T15:30:00Z,28.8425,-94.2433,2.0,-0.0191,11144222 
TABS,ioos:station:wmo:42050:1,2017-01-09T16:00:00Z,28.8425,-94.2433,2.0,-0.0191,11144222 
TABS,ioos:station:wmo:42050:1,2017-01-09T16:30:00Z,28.8425,-94.2433,2.0,-0.0191,11144222 
TABS,ioos:station:wmo:42050:1,2017-01-09T17:00:00Z,28.8425,-94.2433,2.0,-0.0191,11144222 
TABS,ioos:station:wmo:42050:1,2017-01-09T17:30:00Z,28.8425,-94.2433,2.0,-0.0191,11144222 
TABS,ioos:station:wmo:42050:1,2017-01-09T18:00:00Z,28.8425,-94.2433,2.0,-0.0191,11144222 
TABS,ioos:station:wmo:42050:1,2017-01-09T18:30:00Z,28.8425,-94.2433,2.0,-0.0191,11144222 
TABS,ioos:station:wmo:42050:1,2017-01-09T19:00:00Z,28.8425,-94.2433,2.0,-0.0191,11144222 
TABS,ioos:station:wmo:42050:1,2017-01-09T19:30:00Z,28.8425,-94.2433,2.0,-0.0191,11144222 
TABS,ioos:station:wmo:42050:1,2017-01-09T20:00:00Z,28.8425,-94.2433,2.0,-0.0023,11144222 
TABS,ioos:station:wmo:42050:1,2017-01-09T20:30:00Z,28.8425,-94.2433,2.0,-0.0191,11144222 
TABS,ioos:station:wmo:42050:1,2017-01-09T21:00:00Z,28.8425,-94.2433,2.0,0.3355,11111222 
TABS,ioos:station:wmo:42050:1,2017-01-09T21:30:00Z,28.8425,-94.2433,2.0,-0.0191,11144222 
TABS,ioos:station:wmo:42050:1,2017-01-09T22:00:00Z,28.8425,-94.2433,2.0,0.1664,11111222 
TABS,ioos:station:wmo:42050:1,2017-01-09T22:30:00Z,28.8425,-94.2433,2.0,-0.0191,11144222 
TABS,ioos:station:wmo:42050:1,2017-01-09T23:30:00Z,28.8425,-94.2433,2.0,-0.0191,11144222 
TABS,ioos:station:wmo:42050:1,2017-01-10T00:30:00Z,28.8425,-94.2433,2.0,-0.0191,11144222 
TABS,ioos:station:wmo:42050:1,2017-01-10T01:00:00Z,28.8425,-94.2433,2.0,-0.0191,11144222 
TABS,ioos:station:wmo:42050:1,2017-01-10T02:00:00Z,28.8425,-94.2433,2.0,0.205,11111222 
TABS,ioos:station:wmo:42050:1,2017-01-10T02:30:00Z,28.8425,-94.2433,2.0,0.3638,11111222 
TABS,ioos:station:wmo:42050:1,2017-01-10T03:00:00Z,28.8425,-94.2433,2.0,0.0468,11111222 
TABS,ioos:station:wmo:42050:1,2017-01-10T03:30:00Z,28.8425,-94.2433,2.0,-0.0191,11144222 
TABS,ioos:station:wmo:42050:1,2017-01-10T04:00:00Z,28.8425,-94.2433,2.0,-0.0191,11144222 
TABS,ioos:station:wmo:42050:1,2017-01-10T04:30:00Z,28.8425,-94.2433,2.0,49.4906,11133222 
TABS,ioos:station:wmo:42050:1,2017-01-10T05:00:00Z,28.8425,-94.2433,2.0,36.2187,11111222 
TABS,ioos:station:wmo:42050:1,2017-01-10T05:30:00Z,28.8425,-94.2433,2.0,36.2197,11111222 
TABS,ioos:station:wmo:42050:1,2017-01-10T06:00:00Z,28.8425,-94.2433,2.0,36.2198,11111222 
TABS,ioos:station:wmo:42050:1,2017-01-10T06:30:00Z,28.8425,-94.2433,2.0,36.2204,11111222 
TABS,ioos:station:wmo:42050:1,2017-01-10T07:00:00Z,28.8425,-94.2433,2.0,36.2199,11111222 
TABS,ioos:station:wmo:42050:1,2017-01-10T07:30:00Z,28.8425,-94.2433,2.0,36.2194,11111222 
TABS,ioos:station:wmo:42050:1,2017-01-10T08:00:00Z,28.8425,-94.2433,2.0,36.2202,11111222 
TABS,ioos:station:wmo:42050:1,2017-01-10T08:30:00Z,28.8425,-94.2433,2.0,36.2208,11111222 
TABS,ioos:station:wmo:42050:1,2017-01-10T09:00:00Z,28.8425,-94.2433,2.0,36.22,11111222 
TABS,ioos:station:wmo:42050:1,2017-01-10T09:30:00Z,28.8425,-94.2433,2.0,36.2202,11111222 
TABS,ioos:station:wmo:42050:1,2017-01-10T10:00:00Z,28.8425,-94.2433,2.0,36.2204,11111222 
TABS,ioos:station:wmo:42050:1,2017-01-10T10:30:00Z,28.8425,-94.2433,2.0,36.2216,11111222 
TABS,ioos:station:wmo:42050:1,2017-01-10T11:00:00Z,28.8425,-94.2433,2.0,36.2206,11111222 
TABS,ioos:station:wmo:42050:1,2017-01-10T11:30:00Z,28.8425,-94.2433,2.0,36.2218,11111222 
TABS,ioos:station:wmo:42050:1,2017-01-10T12:00:00Z,28.8425,-94.2433,2.0,36.2215,11111222 
TABS,ioos:station:wmo:42050:1,2017-01-10T12:30:00Z,28.8425,-94.2433,2.0,36.2222,11111222 
TABS,ioos:station:wmo:42050:1,2017-01-10T13:00:00Z,28.8425,-94.2433,2.0,36.2222,11111222 
TABS,ioos:station:wmo:42050:1,2017-01-10T13:30:00Z,28.8425,-94.2433,2.0,36.2225,11111222 
TABS,ioos:station:wmo:42050:1,2017-01-10T14:00:00Z,28.8425,-94.2433,2.0,36.223,11111222 
TABS,ioos:station:wmo:42050:1,2017-01-10T14:30:00Z,28.8425,-94.2433,2.0,36.2245,11111222 
TABS,ioos:station:wmo:42050:1,2017-01-10T15:00:00Z,28.8425,-94.2433,2.0,36.2267,11111222 
TABS,ioos:station:wmo:42050:1,2017-01-10T15:30:00Z,28.8425,-94.2433,2.0,36.2253,11111222 
TABS,ioos:station:wmo:42050:1,2017-01-10T16:00:00Z,28.8425,-94.2433,2.0,36.2298,11111222 
TABS,ioos:station:wmo:42050:1,2017-01-10T16:30:00Z,28.8425,-94.2433,2.0,36.2299,11111222 
TABS,ioos:station:wmo:42050:1,2017-01-10T17:00:00Z,28.8425,-94.2433,2.0,36.23,11111222 
TABS,ioos:station:wmo:42050:1,2017-01-10T17:30:00Z,28.8425,-94.2433,2.0,36.2306,11111222 
TABS,ioos:station:wmo:42050:1,2017-01-10T18:00:00Z,28.8425,-94.2433,2.0,36.2329,11111222 
TABS,ioos:station:wmo:42050:1,2017-01-10T18:30:00Z,28.8425,-94.2433,2.0,36.233,11111222 
TABS,ioos:station:wmo:42050:1,2017-01-10T19:00:00Z,28.8425,-94.2433,2.0,36.2346,11111222 
TABS,ioos:station:wmo:42050:1,2017-01-10T19:30:00Z,28.8425,-94.2433,2.0,36.2339,11111222 
TABS,ioos:station:wmo:42050:1,2017-01-10T20:00:00Z,28.8425,-94.2433,2.0,36.2312,11111222 
TABS,ioos:station:wmo:42050:1,2017-01-10T20:30:00Z,28.8425,-94.2433,2.0,36.2313,11111222 
TABS,ioos:station:wmo:42050:1,2017-01-10T21:00:00Z,28.8425,-94.2433,2.0,36.2298,11111222 
TABS,ioos:station:wmo:42050:1,2017-01-10T21:30:00Z,28.8425,-94.2433,2.0,36.2277,11111222 
TABS,ioos:station:wmo:42050:1,2017-01-10T22:00:00Z,28.8425,-94.2433,2.0,36.2249,11111222 
TABS,ioos:station:wmo:42050:1,2017-01-10T22:30:00Z,28.8425,-94.2433,2.0,36.2231,11111222 
TABS,ioos:station:wmo:42050:1,2017-01-10T23:00:00Z,28.8425,-94.2433,2.0,36.2189,11111222 
TABS,ioos:station:wmo:42050:1,2017-01-10T23:30:00Z,28.8425,-94.2433,2.0,36.2169,11111222 
TABS,ioos:station:wmo:42050:1,2017-01-11T00:00:00Z,28.8425,-94.2433,2.0,36.2145,11111222 
TABS,ioos:station:wmo:42050:1,2017-01-11T00:30:00Z,28.8425,-94.2433,2.0,36.211,11111222 
TABS,ioos:station:wmo:42050:1,2017-01-11T01:00:00Z,28.8425,-94.2433,2.0,-0.0191,11144222 
TABS,ioos:station:wmo:42050:1,2017-01-11T01:30:00Z,28.8425,-94.2433,2.0,36.2052,11111222 
TABS,ioos:station:wmo:42050:1,2017-01-11T02:00:00Z,28.8425,-94.2433,2.0,-0.0191,11144222 
TABS,ioos:station:wmo:42050:1,2017-01-11T02:30:00Z,28.8425,-94.2433,2.0,0.0,11111222 
TABS,ioos:station:wmo:42050:1,2017-01-11T03:00:00Z,28.8425,-94.2433,2.0,-0.0191,11144222 
TABS,ioos:station:wmo:42050:1,2017-01-11T03:30:00Z,28.8425,-94.2433,2.0,49.5838,11133222 
TABS,ioos:station:wmo:42050:1,2017-01-11T04:00:00Z,28.8425,-94.2433,2.0,-0.0191,11144222 
TABS,ioos:station:wmo:42050:1,2017-01-11T04:30:00Z,28.8425,-94.2433,2.0,-0.0191,11144222 
TABS,ioos:station:wmo:42050:1,2017-01-11T05:00:00Z,28.8425,-94.2433,2.0,-0.0191,11144222 
TABS,ioos:station:wmo:42050:1,2017-01-11T05:30:00Z,28.8425,-94.2433,2.0,36.1727,11111222 
TABS,ioos:station:wmo:42050:1,2017-01-11T06:00:00Z,28.8425,-94.2433,2.0,36.1683,11111222 
TABS,ioos:station:wmo:42050:1,2017-01-11T06:30:00Z,28.8425,-94.2433,2.0,36.1667,11111222 
TABS,ioos:station:wmo:42050:1,2017-01-11T07:00:00Z,28.8425,-94.2433,2.0,36.1679,11111222 
TABS,ioos:station:wmo:42050:1,2017-01-11T07:30:00Z,28.8425,-94.2433,2.0,36.1694,11111222 
TABS,ioos:station:wmo:42050:1,2017-01-11T08:00:00Z,28.8425,-94.2433,2.0,36.1713,11111222 
TABS,ioos:station:wmo:42050:1,2017-01-11T08:30:00Z,28.8425,-94.2433,2.0,36.1726,11111222 
TABS,ioos:station:wmo:42050:1,2017-01-11T09:00:00Z,28.8425,-94.2433,2.0,36.1749,11111222 
TABS,ioos:station:wmo:42050:1,2017-01-11T09:30:00Z,28.8425,-94.2433,2.0,36.1783,11111222 
TABS,ioos:station:wmo:42050:1,2017-01-11T10:00:00Z,28.8425,-94.2433,2.0,36.179,11111222 
TABS,ioos:station:wmo:42050:1,2017-01-11T10:30:00Z,28.8425,-94.2433,2.0,36.1829,11111222 
TABS,ioos:station:wmo:42050:1,2017-01-11T11:00:00Z,28.8425,-94.2433,2.0,36.1859,11111222 
TABS,ioos:station:wmo:42050:1,2017-01-11T11:30:00Z,28.8425,-94.2433,2.0,36.1881,11111222 
TABS,ioos:station:wmo:42050:1,2017-01-11T12:00:00Z,28.8425,-94.2433,2.0,36.1896,11111222 
TABS,ioos:station:wmo:42050:1,2017-01-11T12:30:00Z,28.8425,-94.2433,2.0,36.1911,11111222 
TABS,ioos:station:wmo:42050:1,2017-01-11T13:00:00Z,28.8425,-94.2433,2.0,36.1948,11111222 
TABS,ioos:station:wmo:42050:1,2017-01-11T13:30:00Z,28.8425,-94.2433,2.0,36.196,11111222 
TABS,ioos:station:wmo:42050:1,2017-01-11T14:00:00Z,28.8425,-94.2433,2.0,36.1967,11111222 
TABS,ioos:station:wmo:42050:1,2017-01-11T14:30:00Z,28.8425,-94.2433,2.0,36.1966,11111222 
TABS,ioos:station:wmo:42050:1,2017-01-11T15:00:00Z,28.8425,-94.2433,2.0,36.1987,11111222 
TABS,ioos:station:wmo:42050:1,2017-01-11T15:30:00Z,28.8425,-94.2433,2.0,36.2031,11111222 
TABS,ioos:station:wmo:42050:1,2017-01-11T16:00:00Z,28.8425,-94.2433,2.0,36.2069,11111222 
TABS,ioos:station:wmo:42050:1,2017-01-11T16:30:00Z,28.8425,-94.2433,2.0,36.2058,11111222 
TABS,ioos:station:wmo:42050:1,2017-01-11T17:00:00Z,28.8425,-94.2433,2.0,49.7073,11133222 
TABS,ioos:station:wmo:42050:1,2017-01-11T17:30:00Z,28.8425,-94.2433,2.0,36.2196,11111222 
TABS,ioos:station:wmo:42050:1,2017-01-11T18:00:00Z,28.8425,-94.2433,2.0,-0.0191,11144222 
TABS,ioos:station:wmo:42050:1,2017-01-11T18:30:00Z,28.8425,-94.2433,2.0,49.9001,11133222 
TABS,ioos:station:wmo:42050:1,2017-01-11T19:00:00Z,28.8425,-94.2433,2.0,-0.0191,11144222 
TABS,ioos:station:wmo:42050:1,2017-01-11T19:30:00Z,28.8425,-94.2433,2.0,-0.0191,11144222 
TABS,ioos:station:wmo:42050:1,2017-01-11T20:00:00Z,28.8425,-94.2433,2.0,-0.0191,11144222 
TABS,ioos:station:wmo:42050:1,2017-01-11T20:30:00Z,28.8425,-94.2433,2.0,-0.0191,11144222 
TABS,ioos:station:wmo:42050:1,2017-01-11T21:00:00Z,28.8425,-94.2433,2.0,-0.0191,11144222 
TABS,ioos:station:wmo:42050:1,2017-01-11T21:30:00Z,28.8425,-94.2433,2.0,-0.0191,11144222 
TABS,ioos:station:wmo:42050:1,2017-01-11T22:00:00Z,28.8425,-94.2433,2.0,-0.0191,11144222 
TABS,ioos:station:wmo:42050:1,2017-01-11T22:30:00Z,28.8425,-94.2433,2.0,36.2271,11111222 
TABS,ioos:station:wmo:42050:1,2017-01-11T23:00:00Z,28.8425,-94.2433,2.0,-0.0191,11144222 
TABS,ioos:station:wmo:42050:1,2017-01-11T23:30:00Z,28.8425,-94.2433,2.0,-0.0191,11144222 
TABS,ioos:station:wmo:42050:1,2017-01-12T00:00:00Z,28.8425,-94.2433,2.0,-0.0191,11144222 
TABS,ioos:station:wmo:42050:1,2017-01-12T00:30:00Z,28.8425,-94.2433,2.0,-0.0191,11144222 
TABS,ioos:station:wmo:42050:1,2017-01-12T01:00:00Z,28.8425,-94.2433,2.0,0.0468,11111222 
TABS,ioos:station:wmo:42050:1,2017-01-12T01:30:00Z,28.8425,-94.2433,2.0,-0.0191,11144222 
TABS,ioos:station:wmo:42050:1,2017-01-12T02:00:00Z,28.8425,-94.2433,2.0,-0.0191,11144222 
TABS,ioos:station:wmo:42050:1,2017-01-12T02:30:00Z,28.8425,-94.2433,2.0,-0.0191,11144222 
TABS,ioos:station:wmo:42050:1,2017-01-12T03:00:00Z,28.8425,-94.2433,2.0,-0.0191,11144222 
TABS,ioos:station:wmo:42050:1,2017-01-12T03:30:00Z,28.8425,-94.2433,2.0,-0.0191,11144222 
TABS,ioos:station:wmo:42050:1,2017-01-12T04:00:00Z,28.8425,-94.2433,2.0,-0.0191,11144222 
TABS,ioos:station:wmo:42050:1,2017-01-12T04:30:00Z,28.8425,-94.2433,2.0,-0.0191,11144222 
TABS,ioos:station:wmo:42050:1,2017-01-12T05:00:00Z,28.8425,-94.2433,2.0,-0.0191,11144222 
TABS,ioos:station:wmo:42050:1,2017-01-12T05:30:00Z,28.8425,-94.2433,2.0,36.2382,11111222 
TABS,ioos:station:wmo:42050:1,2017-01-12T06:00:00Z,28.8425,-94.2433,2.0,-0.0191,11144222 
TABS,ioos:station:wmo:42050:1,2017-01-12T06:30:00Z,28.8425,-94.2433,2.0,-0.0191,11144222 
TABS,ioos:station:wmo:42050:1,2017-01-12T07:00:00Z,28.8425,-94.2433,2.0,0.0,11111222 
TABS,ioos:station:wmo:42050:1,2017-01-12T07:30:00Z,28.8425,-94.2433,2.0,-0.0191,11144222 
TABS,ioos:station:wmo:42050:1,2017-01-12T08:00:00Z,28.8425,-94.2433,2.0,36.2401,11111222 
TABS,ioos:station:wmo:42050:1,2017-01-12T08:30:00Z,28.8425,-94.2433,2.0,36.2387,11111222 
TABS,ioos:station:wmo:42050:1,2017-01-12T09:00:00Z,28.8425,-94.2433,2.0,36.2379,11111222 
TABS,ioos:station:wmo:42050:1,2017-01-12T09:30:00Z,28.8425,-94.2433,2.0,0.0,11111222 
TABS,ioos:station:wmo:42050:1,2017-01-12T10:00:00Z,28.8425,-94.2433,2.0,-0.0191,11144222 
TABS,ioos:station:wmo:42050:1,2017-01-12T10:30:00Z,28.8425,-94.2433,2.0,-0.0191,11144222 
TABS,ioos:station:wmo:42050:1,2017-01-12T11:00:00Z,28.8425,-94.2433,2.0,-0.0191,11144222 
TABS,ioos:station:wmo:42050:1,2017-01-12T11:30:00Z,28.8425,-94.2433,2.0,-0.0191,11144222 
TABS,ioos:station:wmo:42050:1,2017-01-12T12:00:00Z,28.8425,-94.2433,2.0,-0.0191,11144222 
TABS,ioos:station:wmo:42050:1,2017-01-12T12:30:00Z,28.8425,-94.2433,2.0,-0.0191,11144222 
TABS,ioos:station:wmo:42050:1,2017-01-12T13:30:00Z,28.8425,-94.2433,2.0,-0.0191,11144222 
TABS,ioos:station:wmo:42050:1,2017-01-12T14:00:00Z,28.8425,-94.2433,2.0,-0.0191,11144222 
TABS,ioos:station:wmo:42050:1,2017-01-12T14:30:00Z,28.8425,-94.2433,2.0,-0.0191,11144222 
TABS,ioos:station:wmo:42050:1,2017-01-12T15:00:00Z,28.8425,-94.2433,2.0,-0.0191,11144222 
TABS,ioos:station:wmo:42050:1,2017-01-12T15:30:00Z,28.8425,-94.2433,2.0,-0.0191,11144222 
TABS,ioos:station:wmo:42050:1,2017-01-12T16:30:00Z,28.8425,-94.2433,2.0,0.3863,11111222 
TABS,ioos:station:wmo:42050:1,2017-01-23T13:30:00Z,28.8425,-94.2433,2.0,-0.0191,11144222 
TABS,ioos:station:wmo:42050:1,2017-01-23T14:00:00Z,28.8425,-94.2433,2.0,0.3627,11111222 
TABS,ioos:station:wmo:42050:1,2017-01-23T14:30:00Z,28.8425,-94.2433,2.0,-0.0191,11144222 
TABS,ioos:station:wmo:42050:1,2017-01-23T15:00:00Z,28.8425,-94.2433,2.0,0.0203,11111222 
TABS,ioos:station:wmo:42050:1,2017-01-23T16:00:00Z,28.8425,-94.2433,2.0,-0.0191,11144222 
TABS,ioos:station:wmo:42050:1,2017-01-23T17:00:00Z,28.8425,-94.2433,2.0,-0.0191,11144222 
TABS,ioos:station:wmo:42050:1,2017-01-23T17:30:00Z,28.8425,-94.2433,2.0,0.0485,11111222 
TABS,ioos:station:wmo:42050:1,2017-01-23T18:00:00Z,28.8425,-94.2433,2.0,-0.0191,11144222 
TABS,ioos:station:wmo:42050:1,2017-01-23T18:30:00Z,28.8425,-94.2433,2.0,-0.0191,11144222 
TABS,ioos:station:wmo:42050:1,2017-01-23T19:00:00Z,28.8425,-94.2433,2.0,-0.0191,11144222 
TABS,ioos:station:wmo:42050:1,2017-01-23T19:30:00Z,28.8425,-94.2433,2.0,-0.0191,11144222 
TABS,ioos:station:wmo:42050:1,2017-01-23T20:00:00Z,28.8425,-94.2433,2.0,-0.0191,11144222 
TABS,ioos:station:wmo:42050:1,2017-01-24T03:30:00Z,28.8425,-94.2433,2.0,-0.0191,11144222 
TABS,ioos:station:wmo:42050:1,2017-01-24T05:00:00Z,28.8425,-94.2433,2.0,-0.0191,11144222 
TABS,ioos:station:wmo:42050:1,2017-01-24T05:30:00Z,28.8425,-94.2433,2.0,-0.0191,11144222 
TABS,ioos:station:wmo:42050:1,2017-01-24T06:00:00Z,28.8425,-94.2433,2.0,-0.0191,11144222 
TABS,ioos:station:wmo:42050:1,2017-01-24T06:30:00Z,28.8425,-94.2433,2.0,-0.0191,11144222 
TABS,ioos:station:wmo:42050:1,2017-01-24T07:00:00Z,28.8425,-94.2433,2.0,0.0,11111222 
TABS,ioos:station:wmo:42050:1,2017-01-24T07:30:00Z,28.8425,-94.2433,2.0,34.0019,11111222 
TABS,ioos:station:wmo:42050:1,2017-01-24T08:00:00Z,28.8425,-94.2433,2.0,33.9976,11111222 
TABS,ioos:station:wmo:42050:1,2017-01-24T08:30:00Z,28.8425,-94.2433,2.0,34.0254,11111222 
TABS,ioos:station:wmo:42050:1,2017-01-24T09:00:00Z,28.8425,-94.2433,2.0,34.0702,11111222 
TABS,ioos:station:wmo:42050:1,2017-01-24T09:30:00Z,28.8425,-94.2433,2.0,34.1478,11111222 
TABS,ioos:station:wmo:42050:1,2017-01-24T10:00:00Z,28.8425,-94.2433,2.0,34.2214,11111222 
TABS,ioos:station:wmo:42050:1,2017-01-24T10:30:00Z,28.8425,-94.2433,2.0,34.3291,11111222 